EW2279 Weather Reports


Display with metric or nautical units.
time (UTC)temp
F
wind
direction
speed
MPH
gust
MPH
rain 1hr
in
rain 24hr
in
rain mn
in
humidity
%
barometer
mb
20260503192633 64 135 3.0 6.0 0.00 0.00 0.00 35 1016.6
20260503192103 64 135 3.0 6.0 0.00 0.00 0.00 35 1016.6
20260503191603 64 135 3.0 3.0 0.00 0.00 0.00 36 1016.6
20260503190903 65 135 0.0 0.0 0.00 0.00 0.00 36 1016.6
20260503185904 0 0.0 0.0 0.00 0.00 0.00 1017.0
20260503184331 64 135 3.0 3.0 0.00 0.00 0.00 37 1017.3
20260503183433 0 0.0 0.0 0.00 0.00 0.00 1017.3
20260503182002 64 135 2.0 5.0 0.00 0.00 0.00 38 1017.3
20260503181500 64 135 5.0 5.0 0.00 0.00 0.00 38 1017.3
20260503180703 0 0.0 0.0 0.00 0.00 0.00 1017.3
20260503174632 62 225 2.0 3.0 0.00 0.00 0.00 38 1017.8
20260503174133 0 0.0 0.0 0.00 0.00 0.00 1017.8
20260503172502 61 135 0.0 1.0 0.00 0.00 0.00 40 1018.1
20260503171802 62 135 1.0 1.0 0.00 0.00 0.00 40 1018.1
20260503171333 0 0.0 0.0 0.00 0.00 0.00 1018.1
20260503150729 0 0.0 0.0 0.00 0.00 0.00 1019.2
20260503081324 36 135 0.0 0.0 0.00 0.00 0.00 88 1015.9
20260503080723 0 0.0 0.0 0.00 0.00 0.00 1015.9
20260503071952 38 135 1.0 2.0 0.00 0.00 0.00 84 1015.5
20260503054853 39 135 0.0 0.0 0.00 0.00 0.00 80 1015.5
20260503054054 39 135 0.0 0.0 0.00 0.00 0.00 80 1015.5
20260503053553 39 135 0.0 0.0 0.00 0.00 0.00 80 1015.5
20260503053042 39 135 0.0 0.0 0.00 0.00 0.00 80 1015.5
20260503052523 0 0.0 0.0 0.00 0.00 0.00 1015.5
20260503051050 39 135 0.0 0.0 0.00 0.00 0.00 78 1015.5
20260503045220 39 135 0.0 0.0 0.00 0.00 0.00 78 1015.5
20260503044721 40 135 0.0 0.0 0.00 0.00 0.00 78 1015.5
20260503044137 40 135 0.0 0.0 0.00 0.00 0.00 78 1015.5
20260503043620 41 135 0.0 0.0 0.00 0.00 0.00 77 1015.5
20260503042720 41 135 1.0 1.0 0.00 0.00 0.00 77 1015.5
20260503041820 0 0.0 0.0 0.00 0.00 0.00 1015.5
20260503040609 41 135 0.0 0.0 0.00 0.00 0.00 75 1015.5
20260503040053 41 135 0.0 0.0 0.00 0.00 0.00 75 1015.2
20260503035821 0 0.0 0.0 0.00 0.00 0.00 1015.2
20260503033949 0 0.0 0.0 0.00 0.00 0.00 1015.2
20260503032534 41 135 0.0 1.0 0.00 0.00 0.00 74 1015.2
20260503032020 41 135 0.0 0.0 0.00 0.00 0.00 73 1015.2
20260503031418 41 135 0.0 0.0 0.00 0.00 0.00 73 1015.2
20260503030918 41 135 0.0 0.0 0.00 0.00 0.00 73 1014.7
20260503030422 0 0.0 0.0 0.00 0.00 0.00 1015.2
20260503024020 0 0.0 0.0 0.00 0.00 0.00 1014.7
20260503021949 0 0.0 0.0 0.00 0.00 0.00 1014.7
20260503005918 0 0.0 0.0 0.00 0.00 0.00 1014.1
20260503003847 49 135 0.0 0.0 0.00 0.00 0.00 51 1013.7
20260503001946 0 0.0 0.0 0.00 0.00 0.00 1013.7
20260503000319 0 0.0 0.0 0.00 0.00 0.00 1013.3
20260502232945 53 135 4.0 2.0 0.00 0.00 0.00 44 1013.0
20260502231918 53 135 5.0 8.0 0.00 0.00 0.00 44 1013.0
20260502231417 0 0.0 0.0 0.00 0.00 0.00 1013.0
20260502225714 55 135 3.0 3.0 0.00 0.00 0.00 41 1013.0
20260502224818 0 0.0 0.0 0.00 0.00 0.00 1012.6
20260502221937 56 247 1.0 1.0 0.00 0.00 0.00 40 1012.6
20260502221435 56 135 1.0 1.0 0.00 0.00 0.00 40 1012.3
20260502220934 57 135 0.0 2.0 0.00 0.00 0.00 39 1012.3
20260502220417 58 135 1.0 3.0 0.00 0.00 0.00 39 1012.3
20260502215916 58 135 2.0 3.0 0.00 0.00 0.00 38 1012.3
20260502215414 59 135 3.0 3.0 0.00 0.00 0.00 37 1012.3
20260502213945 0 0.0 0.0 0.00 0.00 0.00 1011.8
20260502212143 0 0.0 0.0 0.00 0.00 0.00 1011.8
20260502210313 0 0.0 0.0 0.00 0.00 0.00 1011.5
20260502204043 0 0.0 0.0 0.00 0.00 0.00 1011.5
20260502201214 56 135 3.0 6.0 0.00 0.00 0.00 39 1011.5
20260502200711 58 135 1.0 2.0 0.00 0.00 0.00 38 1011.5
20260502200046 58 135 1.0 3.0 0.00 0.00 0.00 38 1011.8
20260502195513 59 135 1.0 3.0 0.00 0.00 0.00 37 1011.5
20260502195014 60 135 2.0 2.0 0.00 0.00 0.00 38 1011.8
20260502193844 59 135 1.0 1.0 0.00 0.00 0.00 38 1011.5
20260502192812 0 0.0 0.0 0.00 0.00 0.00 1011.8